Hauptseite
METAR-TAF:

METAR-TAF

Flughäfen :

Flughafen Albacete

Albacete, Spanien

Breite: 38-57N, Länge: 001-51W, Höhe: 702 m

Beobachtung

Neuester Wetterbericht von vor 1 Stunde und 10 Minuten, um 23:00 UTC
Wind 4 kt aus Südwest
Temperatur 7°C
Luftfeuchtigkeit 76%
Luftdruck 1028 hPa
Sichtweite 10 km oder mehr
keine Wolken unter 1500 m und keine Kumulonimbus oder Gewitterwolken

METAR: LEAB 162300Z 22004KT CAVOK 07/03 Q1028 NOSIG

Zeit: 01:10 (00:10 UTC)

Prognose

Neuester Wetterbericht von vor 1 Stunde und 10 Minuten, um 23:00 UTC
Gültige Prognose vom 17 um 00 UTC bis 17 um 09 UTC
Wind 5 kt aus unterschiedlichen Richtungen
Sichtweite 10 km oder mehr
keine Wolken unter 1500 m und keine Kumulonimbus oder Gewitterwolken

TAF: LEAB 162300Z 1700/1709 VRB05KT CAVOK

Wetterbeobachtungen und Prognosen von mehr als 4000 Flughäfen (METAR und TAF Bericht).

Die verfügbaren Stationen werden durch gelbe und rote Markierungen auf der Karte dargestellt.

Führen Sie die Maus auf sie, um den Namen der Station zu sehen.

Darauf klicken, um die Beobachtung von Wetterbeobachtungen und Prognosen zu sehen.

Um die Karte zu ändern : klicken Sie auf den grünen Tasten mit einem schwarzen Kreuz Zum Vergrößern, auf den grünen Button mit einem Gedankenstrich zu verkleinern, oder auf die grünen Pfeile für benachbarte Karten.


METAR-TAF: